Jaffrey, NH

5:23 PM EST on December 06, 2016 (GMT -0500)
Jaffrey Airport-Silver Ranch

Weather History for KAFN - March, 2014

Change the Weather History Date:

Friday, March 7, 2014

  Actual Average Record
Temperature  
Mean Temperature 14 °F -  
Max Temperature 36 °F 34 °F 54 °F (2012)
Min Temperature -9 °F 17 °F -11 °F (2003)
Degree Days  
Heating Degree Days 52    
Moisture  
Dew Point 4 °F    
Average Humidity 59    
Maximum Humidity 79    
Minimum Humidity 30    
Precipitation  
Precipitation 0.00 in - - ()
Sea Level Pressure  
Sea Level Pressure 30.24 in    
Wind  
Wind Speed 3 mph (South)    
Max Wind Speed 10 mph    
Max Gust Speed -    
Visibility 10 miles    
Events      
Averages and records for this station are not official NWS values.
T = Trace of Precipitation, MM = Missing Value Source: NWS Daily Summary

Daily Weather History Graph

Daily Weather History Graph

Search for Another Location

Airport or City:

Trip Planner

Search our weather history database for the weather conditions in past years. The results will help you decide how hot, cold, wet, or windy it might be!

Date:

Astronomy

Mar. 07, 2014 Rise Set
Actual Time 6:13 AM EST 5:44 PM EST
Civil Twilight 5:45 AM EST 6:13 PM EST
Nautical Twilight 5:12 AM EST 6:45 PM EST
Astronomical Twilight 4:40 AM EST 7:18 PM EST
Moon 9:55 AM EST (3/7) No Moon Set
Length of Visible Light 12h 27m
Length of Day
11h 30m
Waxing Crescent, 42% of the Moon is Illuminated
Mar 7
Waxing Crescent
Mar 8
First Quarter
Mar 16
Full
Mar 23
Last Quarter
Mar 30
New

Hourly Weather History & Observations

Time (EST) Temp. Windchill Dew Point Humidity Pressure Visibility Wind Dir Wind Speed Gust Speed Precip Events Conditions
12:52 AM -2.9 °F -11.2 °F -8.0 °F 79% 30.51 in 10.0 mi South 3.5 mph - N/A   Clear
1:52 AM -2.9 °F -11.2 °F -9.9 °F 72% 30.49 in 10.0 mi South 3.5 mph - N/A   Clear
2:52 AM -4.0 °F - -9.0 °F 79% 30.47 in 10.0 mi Calm Calm - N/A   Clear
3:52 AM -6.0 °F -14.7 °F -11.0 °F 79% 30.45 in 10.0 mi South 3.5 mph - N/A   Clear
4:52 AM -7.1 °F -15.9 °F -13.0 °F 75% 30.44 in 10.0 mi South 3.5 mph - N/A   Clear
5:52 AM -9.0 °F -18.2 °F -14.1 °F 79% 30.42 in 10.0 mi South 3.5 mph - N/A   Clear
6:52 AM -8.0 °F -19.2 °F -13.0 °F 79% 30.43 in 10.0 mi South 4.6 mph - N/A   Clear
7:52 AM -0.0 °F - -6.0 °F 76% 30.43 in 10.0 mi Calm Calm - N/A   Clear
8:52 AM 16.0 °F - 1.0 °F 52% 30.39 in 10.0 mi Calm Calm - N/A   Clear
9:52 AM 24.1 °F - 5.0 °F 44% 30.37 in 10.0 mi Calm Calm - N/A   Clear
10:52 AM 26.1 °F 21.9 °F 6.1 °F 43% 30.34 in 10.0 mi Variable 3.5 mph - N/A   Clear
11:52 AM 30.0 °F 23.2 °F 7.0 °F 38% 30.30 in 10.0 mi South 6.9 mph - N/A   Clear
12:52 PM 33.1 °F 24.9 °F 10.0 °F 38% 30.26 in 10.0 mi SSW 10.4 mph - N/A   Clear
1:52 PM 36.0 °F 33.3 °F 8.1 °F 31% 30.21 in 10.0 mi Variable 3.5 mph - N/A   Clear
2:52 PM 36.0 °F 33.3 °F 8.1 °F 31% 30.17 in 10.0 mi SSW 3.5 mph - N/A   Clear
3:52 PM 36.0 °F 29.6 °F 7.0 °F 30% 30.15 in 10.0 mi SSE 8.1 mph - N/A   Clear
4:52 PM 35.1 °F 28.6 °F 9.0 °F 34% 30.13 in 10.0 mi South 8.1 mph - N/A   Clear
5:52 PM 30.9 °F 26.2 °F 9.0 °F 40% 30.14 in 10.0 mi SSE 4.6 mph - N/A   Clear
6:52 PM 25.0 °F - 10.9 °F 55% 30.12 in 10.0 mi Calm Calm - N/A   Clear
7:52 PM 21.9 °F - 12.0 °F 66% 30.10 in 10.0 mi Calm Calm - N/A   Clear
8:30 PM 19.9 °F - 12.9 °F 74% 30.01 in 10.0 mi Calm Calm - N/A   Mostly Cloudy
8:52 PM 24.1 °F - 12.9 °F 62% 30.07 in 10.0 mi Calm Calm - N/A   Overcast
9:52 PM 25.0 °F - 16.0 °F 69% 30.04 in 10.0 mi Calm Calm - N/A   Overcast
10:52 PM 24.1 °F - 15.1 °F 69% 30.01 in 10.0 mi Calm Calm - N/A   Overcast
11:34 PM 21.0 °F - 12.9 °F 71% 29.92 in 10.0 mi Calm Calm - N/A   Scattered Clouds
11:52 PM 21.0 °F - 12.9 °F 71% 29.97 in 10.0 mi Calm Calm - N/A   Clear